Eurika — LYRZ — position and weather

sailwx.info

Track history (hours):
 
Tides and Currents Weather Stations Pressure Air Temp Water Temp Dewpoint Dewpoint Depression Visibility Wind Speed Wind Dir Waves Ship Positions

Eurika

Last reported at 2014-Nov-24 01:28 UTC. Time now 2014-Nov-24 21:43 UTC.
Position N 43°12' E 005°01'.

Length 79 m; draft 3.2 m.

MMSI: 277335000.

Date/timePositionNaut miles runAvg speedWind from/ knotsBaromVisibWave heightAir tempDewpointWater temp
2014-Nov-24 01:28N 43°12' E 005°01'5 5.3
2014-Nov-24 00:33N 43°16' E 004°60'7 6.9
2014-Nov-23 23:33N 43°23' E 004°56'5 5.4
2014-Nov-23 22:33N 43°23' E 004°49'2 1.5
2014-Nov-23 21:33N 43°24' E 004°47'  
2014-Nov-17 16:06N 43°23' E 004°51'2 3.2
2014-Nov-17 15:30N 43°23' E 004°53'0 0.0
2014-Nov-17 14:30N 43°23' E 004°53'0 0.0
2014-Nov-17 13:30N 43°23' E 004°53'0 0.0
2014-Nov-17 12:33N 43°23' E 004°53'0 0.0
2014-Nov-17 11:24N 43°23' E 004°53'0 0.0
2014-Nov-17 10:30N 43°23' E 004°53'0 0.0
2014-Nov-17 09:33N 43°23' E 004°53'0 0.0
2014-Nov-17 08:33N 43°23' E 004°53'0 0.1
2014-Nov-17 07:33N 43°23' E 004°53'0 0.0
2014-Nov-17 06:30N 43°23' E 004°53'0 0.0
2014-Nov-17 05:30N 43°23' E 004°53'0 0.0
2014-Nov-17 04:33N 43°23' E 004°53'0 0.0
2014-Nov-17 03:30N 43°23' E 004°53'0 0.0
2014-Nov-17 02:30N 43°23' E 004°53'0 0.0
2014-Nov-17 01:30N 43°23' E 004°53'0 0.0
2014-Nov-17 00:33N 43°23' E 004°53'0 0.0
2014-Nov-16 23:30N 43°23' E 004°53'0 0.0
2014-Nov-16 22:30N 43°23' E 004°53'0 0.0
2014-Nov-16 21:33N 43°23' E 004°53'0 0.0
2014-Nov-16 20:33N 43°23' E 004°53'0 0.0
2014-Nov-16 19:30N 43°23' E 004°53'0 0.1
2014-Nov-16 18:30N 43°23' E 004°53'0 0.0
2014-Nov-16 17:33N 43°23' E 004°53'0 0.0
2014-Nov-16 16:24N 43°23' E 004°53'0 0.0
2014-Nov-16 15:33N 43°23' E 004°53'0 0.0
2014-Nov-16 14:33N 43°23' E 004°53'0 0.0
2014-Nov-16 13:33N 43°23' E 004°53'0 0.0
2014-Nov-16 12:33N 43°23' E 004°53'0 0.0
2014-Nov-16 11:34N 43°23' E 004°53'0 0.0
2014-Nov-16 10:33N 43°23' E 004°53'0 0.0
2014-Nov-16 09:33N 43°23' E 004°53'0 0.0
2014-Nov-16 08:33N 43°23' E 004°53'0 0.0
2014-Nov-16 07:33N 43°23' E 004°53'0 0.0
2014-Nov-16 06:33N 43°23' E 004°53'0 0.0
2014-Nov-16 05:34N 43°23' E 004°53'0 0.0
2014-Nov-16 04:34N 43°23' E 004°53'0 0.0
2014-Nov-16 03:33N 43°23' E 004°53'0 0.1
2014-Nov-16 02:33N 43°23' E 004°53'0 0.0
2014-Nov-16 01:33N 43°23' E 004°53'0 0.0
2014-Nov-16 00:33N 43°23' E 004°53'0 0.0
2014-Nov-15 23:33N 43°23' E 004°53'0 0.0
2014-Nov-15 22:33N 43°23' E 004°53'4 4.4
2014-Nov-15 21:34N 43°21' E 004°59'35 7.8
2014-Nov-15 17:06N 42°58' E 005°34'4 7.8
2014-Nov-15 16:33N 42°55' E 005°38'8 7.8
2014-Nov-15 15:33N 42°50' E 005°47'8 7.9
2014-Nov-15 14:33N 42°45' E 005°55'12 8.0
2014-Nov-15 13:04N 42°38' E 006°08'  
Track history (hours):
 
Tides and Currents Weather Stations Pressure Air Temp Water Temp Dewpoint Dewpoint Depression Visibility Wind Speed Wind Dir Waves Ship Positions

Eurika

Last reported at 2014-Nov-24 01:28 UTC. Time now 2014-Nov-24 21:43 UTC.
Position N 43°12' E 005°01'.

Length 79 m; draft 3.2 m.

MMSI: 277335000.

Date/timePositionNaut miles runAvg speedWind from/ knotsBaromVisibWave heightAir tempDewpointWater temp
2014-Nov-24 01:28N 43°12' E 005°01'5 5.3
2014-Nov-24 00:33N 43°16' E 004°60'7 6.9
2014-Nov-23 23:33N 43°23' E 004°56'5 5.4
2014-Nov-23 22:33N 43°23' E 004°49'2 1.5
2014-Nov-23 21:33N 43°24' E 004°47'  
2014-Nov-17 16:06N 43°23' E 004°51'2 3.2
2014-Nov-17 15:30N 43°23' E 004°53'0 0.0
2014-Nov-17 14:30N 43°23' E 004°53'0 0.0
2014-Nov-17 13:30N 43°23' E 004°53'0 0.0
2014-Nov-17 12:33N 43°23' E 004°53'0 0.0
2014-Nov-17 11:24N 43°23' E 004°53'0 0.0
2014-Nov-17 10:30N 43°23' E 004°53'0 0.0
2014-Nov-17 09:33N 43°23' E 004°53'0 0.0
2014-Nov-17 08:33N 43°23' E 004°53'0 0.1
2014-Nov-17 07:33N 43°23' E 004°53'0 0.0
2014-Nov-17 06:30N 43°23' E 004°53'0 0.0
2014-Nov-17 05:30N 43°23' E 004°53'0 0.0
2014-Nov-17 04:33N 43°23' E 004°53'0 0.0
2014-Nov-17 03:30N 43°23' E 004°53'0 0.0
2014-Nov-17 02:30N 43°23' E 004°53'0 0.0
2014-Nov-17 01:30N 43°23' E 004°53'0 0.0
2014-Nov-17 00:33N 43°23' E 004°53'0 0.0
2014-Nov-16 23:30N 43°23' E 004°53'0 0.0
2014-Nov-16 22:30N 43°23' E 004°53'0 0.0
2014-Nov-16 21:33N 43°23' E 004°53'0 0.0
2014-Nov-16 20:33N 43°23' E 004°53'0 0.0
2014-Nov-16 19:30N 43°23' E 004°53'0 0.1
2014-Nov-16 18:30N 43°23' E 004°53'0 0.0
2014-Nov-16 17:33N 43°23' E 004°53'0 0.0
2014-Nov-16 16:24N 43°23' E 004°53'0 0.0
2014-Nov-16 15:33N 43°23' E 004°53'0 0.0
2014-Nov-16 14:33N 43°23' E 004°53'0 0.0
2014-Nov-16 13:33N 43°23' E 004°53'0 0.0
2014-Nov-16 12:33N 43°23' E 004°53'0 0.0
2014-Nov-16 11:34N 43°23' E 004°53'0 0.0
2014-Nov-16 10:33N 43°23' E 004°53'0 0.0
2014-Nov-16 09:33N 43°23' E 004°53'0 0.0
2014-Nov-16 08:33N 43°23' E 004°53'0 0.0
2014-Nov-16 07:33N 43°23' E 004°53'0 0.0
2014-Nov-16 06:33N 43°23' E 004°53'0 0.0
2014-Nov-16 05:34N 43°23' E 004°53'0 0.0
2014-Nov-16 04:34N 43°23' E 004°53'0 0.0
2014-Nov-16 03:33N 43°23' E 004°53'0 0.1
2014-Nov-16 02:33N 43°23' E 004°53'0 0.0
2014-Nov-16 01:33N 43°23' E 004°53'0 0.0
2014-Nov-16 00:33N 43°23' E 004°53'0 0.0
2014-Nov-15 23:33N 43°23' E 004°53'0 0.0
2014-Nov-15 22:33N 43°23' E 004°53'4 4.4
2014-Nov-15 21:34N 43°21' E 004°59'35 7.8
2014-Nov-15 17:06N 42°58' E 005°34'4 7.8
2014-Nov-15 16:33N 42°55' E 005°38'8 7.8
2014-Nov-15 15:33N 42°50' E 005°47'8 7.9
2014-Nov-15 14:33N 42°45' E 005°55'12 8.0
2014-Nov-15 13:04N 42°38' E 006°08'  

Dump ship's entire track history